Temp
87 88 87 87 88 89 88 89 90 87 85 87 87 88 84 81 76 74 76 78 82 86 91 85 86 89 88 86 89 91 92 88 87 91 90 89 86 77 75 74 76 76 77 78 78 78 78 78 79 79 80 80 79 76 74 75 75 76 77 77 78 78 79 79 78 77 76 76 76 77 78 78 78 78
85 86 86 87 88 89 89 88 88 85 85 86 87 87 87 84 79 77 74 75 82 83 88 89 85 86 88 89 88 92 92 82 87 90 91 89 89 73 75 75 75 75 75 75 75 76 77 77 78 78 78 79 79 80 80 78 78 77 78 78 78 78 78 78 77 76 76 76 76 76 77 77 78 78
83 82 82 86 86 87 87 85 85 86 87 88 87 87 87 86 83 79 77 72 80 86 82 87 90 88 88 91 90 92 91 88 87 89 89 90 80 76 82 75 75 75 73 74 74 75 76 77 77 78 79 79 80 80 80 80 81 81 81 80 79 79 78 77 76 76 76 76 76 76 77 77 77 77
83 82 82 83 84 85 85 86 88 89 89 88 87 87 86 84 84 81 77 74 74 83 85 86 88 90 89 89 88 90 90 89 81 88 88 88 81 86 89 75 75 73 73 73 73 73 74 75 77 78 79 79 79 79 79 80 80 80 81 80 80 79 77 76 76 76 76 76 76 76 76 77 77 77
83 81 80 82 83 85 85 86 88 89 89 89 88 87 86 85 85 82 78 75 76 81 87 87 87 89 89 88 89 88 88 88 90 86 89 88 89 89 91 89 75 75 73 74 73 73 73 73 75 76 76 77 77 78 79 79 79 79 79 78 78 76 75 75 76 76 76 76 76 76 76 76 76 76
82 80 79 81 84 84 85 85 86 88 88 88 87 87 86 85 84 84 81 79 76 75 81 83 87 86 88 85 89 86 86 86 86 88 89 89 89 89 89 88 90 72 74 73 73 72 71 72 73 73 75 75 75 77 77 77 77 77 76 75 74 74 73 74 74 75 76 76 76 76 76 76 76 76
79 79 79 81 81 85 83 83 85 87 87 87 87 86 87 85 85 85 83 78 76 76 78 81 82 84 85 84 84 85 86 84 84 83 85 87 89 91 90 88 91 73 75 73 73 72 72 72 72 73 73 72 73 74 74 73 71 71 70 70 70 70 71 71 71 71 73 74 75 75 75 75 75 75
78 77 78 80 80 80 79 80 82 85 86 85 85 85 85 85 85 85 84 81 77 77 76 78 80 82 81 82 84 84 84 83 82 85 85 86 86 88 90 91 92 81 72 72 72 73 73 72 71 71 70 71 72 72 70 69 70 69 69 69 69 69 69 69 68 68 69 69 71 72 73 74 74 74
78 77 78 79 79 79 79 80 83 84 83 84 83 83 84 83 84 84 83 81 80 76 75 77 79 81 81 82 81 82 80 80 81 81 81 83 85 85 87 87 89 79 69 73 73 74 74 73 71 70 70 70 70 69 69 69 69 68 68 68 67 68 68 67 67 67 66 66 66 67 69 70 71 72
78 77 78 78 77 78 77 79 80 80 80 81 82 82 81 81 81 80 80 80 78 78 76 75 76 78 79 78 78 79 79 78 77 79 80 82 82 82 84 85 85 87 89 90 88 77 74 71 68 70 71 70 70 69 69 69 68 68 67 66 67 67 67 67 67 66 65 64 65 65 66 68 69 71
78 77 77 77 77 76 77 77 77 78 79 80 79 79 79 80 80 79 78 78 78 77 76 77 78 77 78 77 75 78 79 78 78 74 74 74 79 80 79 78 82 83 83 81 77 79 79 77 79 72 68 69 70 69 70 70 69 69 68 67 67 67 68 67 67 66 66 65 64 63 63 64 67 69
79 77 77 77 77 76 75 75 76 77 76 76 77 79 78 77 77 77 78 77 76 75 76 75 76 76 74 74 76 78 77 75 75 77 75 72 73 75 77 78 78 79 79 79 82 80 79 78 76 71 71 70 69 69 69 69 71 70 70 69 68 68 68 67 66 66 66 65 65 64 62 61 62 65
76 76 77 78 78 76 72 72 72 73 73 74 73 74 75 74 74 74 74 74 73 73 74 73 74 74 73 74 74 74 74 74 74 75 75 73 75 76 75 76 78 78 78 80 82 81 81 80 81 82 81 81 74 73 71 75 71 71 70 69 69 68 68 67 66 66 65 65 64 64 63 61 61 61
76 76 77 77 75 74 74 73 73 73 73 73 74 74 74 73 72 72 71 72 73 72 71 72 72 72 72 73 72 73 74 75 75 74 73 70 72 73 73 75 76 78 78 77 74 76 80 80 80 81 79 80 80 81 80 79 79 73 70 69 67 67 67 67 66 66 65 64 64 63 63 62 62 61
76 77 77 79 78 76 76 76 74 74 74 73 73 72 72 72 71 70 70 70 70 69 69 69 70 70 69 70 72 73 75 76 75 73 72 71 71 70 68 66 72 78 74 72 72 74 78 77 75 76 76 78 78 79 78 72 70 69 69 67 67 67 66 67 66 66 65 65 64 64 63 62 62 61
76 76 77 78 78 78 76 75 75 75 74 73 73 72 72 72 72 71 70 68 67 67 67 68 69 70 69 70 71 73 75 75 75 73 71 70 70 69 68 68 67 74 76 72 71 71 76 77 76 75 76 77 78 79 74 70 69 69 69 68 67 67 66 66 66 65 65 65 65 64 64 63 63 62
75 75 75 76 77 78 75 76 76 75 74 73 73 73 73 73 73 71 71 71 71 70 68 67 67 68 69 69 70 71 71 72 70 70 70 70 69 69 67 69 71 73 76 72 69 69 74 76 74 75 77 78 78 78 72 69 69 68 67 67 67 66 66 65 65 65 65 65 64 64 63 62 63 62
75 75 74 74 75 77 77 76 76 74 73 73 73 73 73 74 74 73 72 71 71 71 70 69 67 69 70 68 69 71 71 69 67 68 68 70 69 68 68 71 72 75 77 72 70 69 74 77 77 74 76 78 78 78 74 67 67 67 66 66 65 66 65 65 65 65 65 64 64 63 63 62 62 61
76 75 75 75 75 75 75 75 71 71 71 70 71 71 71 71 71 71 72 73 73 72 73 72 71 71 72 71 71 72 72 72 71 71 70 69 69 70 73 73 74 75 76 74 70 66 73 78 75 75 77 78 78 79 73 66 68 65 66 65 65 64 64 64 64 64 64 65 64 63 63 63 62 61
76 76 75 74 74 75 74 71 66 67 68 68 68 69 70 71 71 71 72 70 70 71 71 72 72 72 72 68 69 69 69 69 69 70 71 71 70 69 69 69 73 73 77 76 71 68 71 76 75 75 78 78 77 78 78 67 67 66 65 65 64 63 63 64 63 64 64 64 64 64 63 62 62 61
77 76 76 75 75 75 74 69 63 64 64 67 67 68 69 70 70 70 71 69 68 67 66 64 65 64 64 63 63 62 62 65 68 69 66 66 69 67 65 69 71 72 75 75 74 72 70 74 74 73 75 76 75 76 76 74 66 64 65 64 64 64 63 63 63 63 64 63 64 63 62 62 62 61
76 76 75 75 75 73 73 66 62 62 65 66 67 67 67 67 67 68 69 68 68 68 65 65 64 64 64 64 64 64 64 64 66 67 64 70 70 67 68 66 69 71 73 73 74 69 71 74 76 74 75 75 77 77 77 76 72 64 64 63 64 64 64 64 63 63 63 62 63 63 61 60 60 69
76 76 76 75 75 73 70 61 60 60 63 65 66 66 66 66 65 66 66 66 66 67 67 66 66 65 66 68 70 71 68 67 67 67 67 69 68 65 65 67 68 68 72 74 73 67 70 72 75 74 71 69 74 77 77 77 76 76 70 70 73 65 66 64 63 61 61 61 60 60 61 60 60 79
75 76 76 76 72 63 62 59 58 57 57 63 66 66 64 64 64 67 66 66 66 66 66 66 67 66 66 69 72 72 71 70 69 67 68 68 68 65 64 67 66 66 70 74 75 70 69 71 71 75 72 67 67 73 77 76 75 74 77 76 77 67 67 63 63 58 59 60 58 58 58 58 62 79
75 74 75 75 72 60 59 57 55 55 55 59 64 64 63 65 63 63 65 66 66 66 67 66 66 67 68 68 69 70 70 70 68 68 66 69 70 67 65 66 67 69 72 70 69 69 66 69 70 72 71 69 69 68 71 75 77 74 76 76 75 72 78 77 71 72 59 57 56 56 57 60 58 68
74 73 73 74 69 59 58 55 54 53 55 57 64 64 58 56 58 63 65 66 66 66 65 66 67 69 69 68 68 68 69 70 69 68 68 67 68 69 69 67 65 64 67 69 66 70 68 66 70 68 67 66 68 70 69 73 74 77 76 75 77 74 77 71 73 71 71 71 73 69 65 58 60 58
72 73 73 72 66 58 54 52 52 54 54 61 64 55 57 58 59 63 66 65 64 64 64 65 64 65 66 65 64 65 65 67 67 68 68 68 67 66 69 72 71 69 68 67 70 71 68 65 68 69 67 67 64 68 69 71 71 75 76 77 76 78 80 79 76 69 69 68 68 58 58 58 58 59
73 72 72 69 58 53 51 51 53 54 59 65 55 56 58 61 65 67 66 66 65 64 63 62 63 63 64 64 63 63 65 66 67 67 68 68 68 68 68 67 68 70 68 69 71 74 72 69 69 70 69 66 65 64 62 70 73 73 70 73 75 74 76 77 76 74 73 71 70 71 73 73 73 72
73 66 58 55 54 54 54 56 58 62 64 60 59 59 62 67 68 66 65 64 63 61 61 61 62 63 64 65 64 65 65 66 67 67 67 67 67 69 70 71 72 73 74 74 74 71 67 64 68 71 70 68 65 67 70 69 72 70 68 69 66 71 71 71 72 69 69 73 72 71 70 70 70 70
63 61 59 58 59 63 64 67 67 66 67 64 65 66 67 68 66 65 63 62 60 59 59 60 60 62 63 63 64 64 64 64 65 65 64 64 65 68 69 68 69 72 75 73 73 72 69 67 65 67 71 70 68 68 70 69 69 71 70 69 68 70 68 67 67 68 68 68 69 69 68 68 67 68
71 71 71 70 64 64 64 66 67 67 67 68 68 69 68 67 66 65 64 62 60 58 58 58 60 61 62 64 63 62 62 62 63 64 64 64 64 65 68 67 68 71 72 73 72 71 71 70 68 66 63 63 64 66 68 69 67 69 69 66 66 65 69 71 68 67 67 70 70 69 69 68 67 67
69 72 72 71 69 68 68 68 68 67 67 67 67 67 67 67 66 66 65 63 61 60 59 59 60 61 62 61 61 62 62 62 62 63 63 63 63 64 65 65 67 67 64 68 69 69 68 68 67 66 63 62 62 64 69 69 68 67 65 65 66 69 71 71 72 71 69 70 67 64 63 64 64 64
70 73 71 69 66 66 65 66 65 65 65 66 67 67 67 67 67 65 62 59 59 59 59 59 60 60 61 60 61 61 61 61 61 62 63 63 62 62 62 63 67 68 67 63 65 66 66 65 65 64 62 60 59 60 61 63 64 66 64 64 66 67 68 70 68 66 68 66 64 63 60 60 61 61
71 71 69 67 65 64 64 64 63 63 63 63 64 65 64 65 65 62 60 59 58 60 59 60 60 60 60 60 60 60 60 60 61 62 62 61 62 60 61 62 65 68 68 65 64 65 64 63 62 62 61 58 57 57 57 57 58 60 64 65 64 63 64 65 65 65 64 63 62 59 58 57 58 59
74 69 67 65 64 63 63 63 62 62 62 62 62 63 63 64 64 62 61 59 59 59 58 60 61 60 59 59 59 59 59 60 60 61 63 63 62 61 62 61 63 65 67 65 64 66 65 63 62 60 59 59 57 56 55 57 56 57 63 63 62 61 60 61 62 62 61 60 60 57 55 55 55 58
70 68 65 64 63 62 62 62 61 61 61 61 61 61 61 62 62 62 60 60 59 58 59 58 59 58 59 59 59 60 60 60 60 61 62 62 62 62 63 61 62 63 65 67 68 69 69 67 66 64 61 58 57 55 54 54 53 55 56 59 60 58 58 58 58 59 59 57 58 57 54 52 52 54
68 65 63 63 62 61 61 62 62 61 61 61 61 62 60 60 61 61 61 62 61 60 59 60 59 59 60 61 61 61 60 60 61 62 61 61 61 60 60 61 61 61 62 61 62 63 65 68 69 67 62 57 55 52 52 57 55 54 54 58 57 57 56 56 55 54 55 56 55 56 53 53 51 52
67 65 62 62 61 61 61 62 61 61 61 61 62 61 61 61 62 62 62 61 60 60 60 61 59 60 61 63 62 62 61 61 61 60 59 60 60 60 60 59 58 60 62 63 63 61 62 60 62 61 60 58 58 55 52 54 54 52 52 57 56 55 57 55 53 53 53 55 55 56 56 53 51 51
68 66 63 61 61 61 61 61 61 61 61 62 62 61 61 62 63 62 60 59 59 60 60 60 60 61 64 65 64 62 61 60 59 59 59 59 59 58 59 59 59 60 62 62 62 61 61 59 58 57 56 54 53 51 51 49 47 50 52 52 55 55 54 53 52 53 52 51 52 55 56 56 56 56
69 68 65 63 62 62 61 61 61 62 62 62 63 62 62 62 62 62 60 59 59 59 59 60 60 60 63 64 64 64 62 61 60 58 58 58 59 59 59 58 59 60 61 61 61 60 58 56 55 55 55 56 56 56 55 54 52 53 51 51 51 51 52 55 53 53 52 54 55 54 53 54 52 53
69 67 67 65 64 63 62 62 62 63 63 63 63 62 62 63 63 62 61 61 59 58 58 59 60 60 60 62 62 60 59 58 59 59 59 60 59 59 59 59 59 60 59 57 57 57 57 57 59 61 62 62 62 61 58 53 48 48 49 49 51 51 49 49 51 53 53 55 55 54 53 51 50 51
70 69 68 68 65 64 64 62 63 63 63 63 62 61 62 64 64 63 63 61 60 59 58 59 59 59 60 61 61 61 60 59 58 58 58 58 57 58 58 58 56 56 55 53 53 54 57 60 61 61 61 61 59 55 51 50 47 47 48 49 50 52 51 50 48 47 48 51 54 53 53 52 53 51
70 70 69 68 66 65 65 64 64 64 64 63 62 62 63 64 64 64 63 61 60 60 59 59 60 60 59 59 59 60 59 59 59 58 57 57 58 57 56 56 56 57 57 56 57 58 58 59 59 58 56 55 54 55 51 49 49 49 49 49 49 51 51 52 51 50 49 47 46 47 50 52 52 47
71 70 70 69 68 66 65 65 64 65 64 63 63 64 64 63 63 63 62 61 61 60 61 61 60 60 60 59 59 58 57 57 58 58 58 57 57 57 57 57 57 57 58 58 57 57 58 58 57 57 54 52 53 51 50 50 49 50 49 50 51 51 50 52 52 52 52 51 50 49 47 46 46 46
73 71 71 70 68 68 66 66 65 66 65 64 64 63 64 64 64 64 63 63 63 63 63 63 62 62 61 61 60 58 58 59 58 57 57 57 57 57 57 57 56 55 54 55 56 56 57 57 58 58 55 53 53 52 52 52 51 51 50 50 49 50 51 51 50 49 50 49 51 52 51 50 49 49
MSLP
1014.81 1014.49 1014.45 1014.29 1014.05 1013.61 1013.57 1013.41 1013.13 1013.21 1013.61 1013.49 1013.33 1013.25 1013.73 1014.05 1015.09 1015.41 1014.81 1014.01 1013.49 1012.25 1011.49 1012.29 1011.97 1011.81 1011.89 1011.97 1011.53 1011.33 1011.17 1011.41 1011.57 1011.29 1011.17 1011.29 1011.65 1012.09 1012.13 1012.05 1011.93 1011.89 1011.89 1011.97 1012.01 1012.01 1012.01 1012.01 1011.93 1011.89 1011.85 1011.93 1012.17 1012.93 1013.25 1013.01 1013.05 1013.01 1012.97 1012.85 1012.85 1012.89 1012.89 1012.85 1012.93 1013.05 1013.09 1013.13 1013.17 1013.21 1013.25 1013.29 1013.45 1013.61
1014.97 1014.85 1014.65 1014.37 1014.13 1013.61 1013.65 1013.53 1013.65 1013.77 1013.73 1013.61 1013.29 1013.21 1013.13 1013.41 1014.37 1014.61 1015.25 1014.73 1013.45 1013.01 1011.93 1011.61 1012.13 1011.81 1011.77 1011.69 1011.73 1011.25 1010.93 1011.33 1011.37 1011.37 1011.13 1011.13 1011.25 1011.89 1011.97 1011.97 1011.85 1011.81 1011.77 1011.81 1011.85 1011.85 1011.81 1011.81 1011.81 1011.81 1011.89 1011.97 1012.13 1012.29 1012.49 1012.53 1012.61 1012.61 1012.57 1012.53 1012.49 1012.53 1012.53 1012.57 1012.69 1012.77 1012.73 1012.65 1012.73 1012.77 1012.77 1012.89 1013.01 1013.21
1015.25 1015.17 1015.05 1014.45 1014.29 1014.01 1014.01 1013.93 1013.81 1013.57 1013.41 1013.25 1013.25 1013.25 1013.17 1013.25 1013.53 1014.09 1014.49 1015.17 1013.57 1012.69 1012.97 1012.05 1011.45 1011.57 1011.53 1011.37 1011.37 1011.21 1010.97 1011.09 1011.33 1011.45 1011.25 1011.05 1011.41 1011.65 1011.61 1011.73 1011.73 1011.69 1011.73 1011.69 1011.65 1011.69 1011.69 1011.73 1011.73 1011.73 1011.73 1011.81 1011.93 1012.05 1012.17 1012.21 1012.21 1012.21 1012.13 1012.09 1012.13 1012.17 1012.17 1012.21 1012.33 1012.41 1012.49 1012.49 1012.49 1012.53 1012.49 1012.53 1012.69 1012.81
1015.29 1015.29 1015.17 1014.89 1014.61 1014.29 1014.21 1013.85 1013.45 1013.25 1013.01 1013.01 1013.13 1013.13 1013.21 1013.37 1013.41 1013.69 1014.29 1014.73 1014.49 1013.01 1012.69 1012.21 1011.77 1011.49 1011.49 1011.37 1011.65 1011.41 1011.13 1010.93 1011.25 1011.29 1011.25 1011.01 1011.33 1011.17 1010.85 1011.29 1011.37 1011.45 1011.49 1011.57 1011.69 1011.77 1011.81 1011.77 1011.73 1011.65 1011.65 1011.69 1011.77 1011.89 1011.97 1011.97 1011.97 1011.93 1011.93 1011.85 1011.85 1011.93 1011.97 1011.97 1012.01 1012.05 1012.13 1012.13 1012.17 1012.25 1012.29 1012.33 1012.41 1012.53
1015.41 1015.49 1015.49 1015.13 1014.77 1014.41 1014.33 1013.93 1013.61 1013.33 1013.05 1012.93 1012.93 1012.89 1013.05 1013.21 1013.09 1013.37 1013.85 1014.33 1014.05 1013.01 1012.13 1012.17 1012.05 1011.49 1011.45 1011.61 1011.37 1011.53 1011.33 1011.13 1010.89 1010.97 1011.01 1010.89 1010.89 1010.73 1010.41 1010.37 1010.85 1011.05 1011.17 1011.29 1011.41 1011.57 1011.65 1011.77 1011.81 1011.77 1011.77 1011.73 1011.73 1011.73 1011.77 1011.77 1011.77 1011.73 1011.73 1011.69 1011.69 1011.69 1011.73 1011.77 1011.77 1011.81 1011.85 1011.89 1011.85 1011.85 1011.89 1012.01 1012.13 1012.29
1015.85 1015.73 1015.69 1015.33 1014.93 1014.49 1014.37 1014.13 1013.89 1013.45 1013.21 1013.09 1013.05 1012.97 1013.01 1013.09 1013.05 1012.81 1013.45 1013.65 1013.81 1013.85 1012.81 1012.45 1011.85 1011.85 1011.45 1011.81 1011.13 1011.45 1011.61 1011.53 1011.25 1011.13 1010.89 1010.77 1010.65 1010.57 1010.41 1010.29 1010.17 1010.69 1010.81 1010.97 1011.17 1011.29 1011.41 1011.45 1011.53 1011.65 1011.73 1011.77 1011.73 1011.69 1011.65 1011.65 1011.65 1011.61 1011.57 1011.49 1011.49 1011.57 1011.57 1011.57 1011.57 1011.53 1011.57 1011.65 1011.69 1011.65 1011.65 1011.73 1011.81 1011.93
1016.17 1016.13 1015.89 1015.45 1015.21 1014.73 1014.73 1014.53 1014.05 1013.57 1013.41 1013.09 1013.13 1013.09 1012.85 1012.97 1012.81 1012.65 1012.77 1013.33 1013.69 1013.57 1013.21 1012.57 1012.37 1011.89 1011.61 1011.81 1011.69 1011.45 1011.29 1011.37 1011.45 1011.65 1011.33 1010.89 1010.29 1010.09 1010.25 1010.37 1010.09 1010.29 1010.45 1010.61 1010.69 1010.93 1011.13 1011.21 1011.29 1011.37 1011.45 1011.57 1011.65 1011.69 1011.69 1011.73 1011.69 1011.61 1011.57 1011.45 1011.41 1011.45 1011.53 1011.53 1011.53 1011.53 1011.53 1011.61 1011.69 1011.65 1011.57 1011.57 1011.61 1011.73
1016.41 1016.33 1016.09 1015.73 1015.53 1015.37 1015.25 1014.89 1014.45 1013.81 1013.45 1013.37 1013.29 1013.21 1012.93 1012.81 1012.77 1012.57 1012.53 1012.73 1013.25 1013.25 1013.49 1012.85 1012.61 1012.05 1012.09 1011.85 1011.57 1011.53 1011.53 1011.61 1011.53 1011.25 1010.93 1010.77 1010.69 1010.29 1009.89 1009.77 1009.57 1009.85 1010.49 1010.69 1010.73 1010.77 1010.85 1010.97 1011.09 1011.21 1011.29 1011.41 1011.45 1011.49 1011.53 1011.57 1011.57 1011.53 1011.45 1011.33 1011.25 1011.25 1011.37 1011.41 1011.45 1011.49 1011.49 1011.57 1011.61 1011.61 1011.49 1011.45 1011.45 1011.53
1016.37 1016.33 1016.09 1015.85 1015.69 1015.49 1015.37 1014.93 1014.37 1013.97 1013.89 1013.69 1013.57 1013.45 1013.09 1012.97 1012.73 1012.65 1012.61 1012.73 1012.77 1013.09 1013.25 1012.89 1012.37 1012.13 1011.97 1011.65 1011.65 1011.65 1011.89 1011.73 1011.53 1011.33 1011.29 1011.05 1010.65 1010.45 1010.13 1009.85 1009.69 1009.85 1010.29 1010.25 1010.33 1010.25 1010.21 1010.33 1010.57 1010.73 1010.81 1010.97 1011.13 1011.25 1011.33 1011.33 1011.33 1011.37 1011.33 1011.21 1011.09 1011.01 1011.13 1011.29 1011.29 1011.33 1011.37 1011.45 1011.49 1011.45 1011.45 1011.37 1011.37 1011.41
1016.25 1016.25 1016.13 1015.89 1015.81 1015.61 1015.49 1015.09 1014.73 1014.49 1014.33 1014.05 1013.77 1013.57 1013.41 1013.25 1013.09 1013.05 1012.97 1012.81 1012.93 1013.01 1013.05 1012.97 1012.81 1012.29 1012.21 1012.01 1011.93 1011.69 1011.77 1012.05 1012.01 1011.77 1011.33 1010.97 1010.73 1010.61 1010.41 1010.25 1010.01 1009.73 1009.57 1009.49 1009.41 1009.61 1009.93 1010.09 1010.21 1010.37 1010.53 1010.73 1010.89 1011.05 1011.09 1011.17 1011.21 1011.21 1011.17 1011.09 1010.97 1010.85 1010.81 1011.01 1011.13 1011.17 1011.21 1011.25 1011.29 1011.29 1011.29 1011.29 1011.25 1011.25
1016.13 1016.17 1016.09 1015.97 1015.81 1015.73 1015.57 1015.41 1015.13 1014.81 1014.53 1014.21 1014.09 1013.89 1013.65 1013.29 1013.25 1013.21 1013.05 1012.93 1012.85 1012.73 1012.77 1012.57 1012.41 1012.33 1012.01 1012.09 1012.33 1011.69 1011.53 1011.69 1011.77 1012.13 1012.01 1011.73 1010.97 1010.73 1010.81 1010.81 1010.29 1010.05 1010.01 1009.81 1009.93 1009.93 1009.81 1009.81 1009.89 1009.93 1010.21 1010.25 1010.41 1010.61 1010.77 1010.85 1010.85 1010.89 1010.89 1010.85 1010.77 1010.65 1010.57 1010.65 1010.85 1010.89 1010.93 1011.01 1011.13 1011.13 1011.13 1011.13 1011.13 1011.13
1016.21 1016.21 1016.09 1015.89 1015.73 1015.69 1015.73 1015.65 1015.37 1015.05 1014.93 1014.69 1014.49 1014.01 1013.81 1013.69 1013.65 1013.49 1013.13 1012.93 1012.89 1012.89 1012.73 1012.65 1012.45 1012.29 1012.45 1012.37 1012.01 1011.69 1011.69 1011.97 1011.89 1011.61 1011.69 1012.05 1011.77 1011.33 1010.97 1010.81 1010.81 1010.49 1010.45 1010.41 1009.89 1009.65 1009.69 1009.69 1009.69 1009.69 1009.69 1009.89 1010.05 1010.13 1010.25 1010.37 1010.41 1010.49 1010.45 1010.49 1010.49 1010.45 1010.37 1010.41 1010.57 1010.65 1010.69 1010.77 1010.85 1010.93 1011.01 1011.01 1011.01 1011.01
1016.33 1016.25 1016.01 1015.73 1015.73 1015.77 1015.85 1015.73 1015.61 1015.41 1015.33 1015.17 1014.89 1014.49 1014.29 1014.17 1014.05 1013.81 1013.57 1013.33 1013.21 1013.05 1012.89 1012.77 1012.49 1012.53 1012.49 1012.25 1012.21 1012.09 1012.01 1011.97 1011.85 1011.45 1011.45 1011.65 1011.33 1011.09 1011.13 1010.85 1010.53 1010.57 1010.57 1010.25 1010.01 1009.85 1009.69 1009.65 1009.41 1009.25 1009.29 1009.25 1009.53 1009.69 1009.85 1009.81 1009.93 1009.97 1009.97 1010.01 1010.13 1010.21 1010.25 1010.21 1010.21 1010.37 1010.49 1010.53 1010.61 1010.69 1010.81 1010.89 1010.89 1010.85
1016.33 1016.21 1015.97 1015.69 1015.65 1015.69 1015.61 1015.53 1015.33 1015.25 1015.13 1015.01 1014.81 1014.65 1014.45 1014.33 1014.21 1014.09 1013.85 1013.61 1013.29 1013.21 1013.21 1012.93 1012.65 1012.57 1012.41 1012.13 1012.13 1012.13 1011.85 1011.61 1011.49 1011.53 1011.65 1011.97 1011.53 1011.41 1011.37 1011.01 1010.61 1010.33 1010.41 1010.49 1010.53 1010.21 1009.69 1009.69 1009.53 1009.33 1009.41 1009.25 1009.21 1009.13 1009.21 1009.45 1009.45 1009.65 1009.85 1010.05 1010.17 1010.13 1010.13 1010.09 1010.05 1010.09 1010.21 1010.25 1010.33 1010.45 1010.53 1010.65 1010.69 1010.69
1016.41 1016.05 1015.85 1015.53 1015.41 1015.33 1015.17 1015.17 1015.17 1014.97 1014.89 1014.81 1014.69 1014.49 1014.41 1014.25 1014.21 1014.09 1013.89 1013.61 1013.41 1013.37 1013.29 1013.01 1012.85 1012.61 1012.49 1012.21 1011.89 1011.85 1011.57 1011.33 1011.33 1011.45 1011.53 1011.57 1011.61 1011.73 1012.01 1012.13 1011.09 1010.21 1010.61 1010.85 1010.81 1010.53 1009.97 1009.89 1010.09 1009.85 1009.73 1009.45 1009.25 1009.17 1009.17 1009.25 1009.45 1009.65 1009.85 1009.97 1010.01 1010.05 1010.01 1009.97 1009.97 1009.97 1010.01 1010.05 1010.09 1010.13 1010.21 1010.29 1010.41 1010.49
1016.29 1016.21 1015.89 1015.57 1015.33 1015.13 1015.25 1015.33 1014.93 1014.73 1014.69 1014.57 1014.49 1014.37 1014.17 1014.05 1013.89 1013.69 1013.77 1013.77 1013.65 1013.45 1013.33 1013.09 1012.73 1012.53 1012.29 1012.05 1011.81 1011.53 1011.25 1011.17 1011.17 1011.29 1011.53 1011.57 1011.65 1011.69 1011.77 1011.77 1011.85 1010.73 1010.41 1010.85 1010.97 1010.73 1009.89 1009.69 1009.81 1009.85 1009.61 1009.37 1009.21 1009.09 1009.09 1009.21 1009.33 1009.45 1009.49 1009.49 1009.61 1009.69 1009.77 1009.81 1009.89 1009.85 1009.85 1009.85 1009.89 1009.93 1009.97 1010.05 1010.13 1010.21
1016.37 1016.21 1016.01 1015.73 1015.41 1015.05 1015.05 1014.89 1014.69 1014.73 1014.61 1014.41 1014.25 1014.05 1013.81 1013.57 1013.41 1013.37 1013.29 1013.21 1013.17 1013.01 1013.09 1013.09 1012.89 1012.65 1012.33 1012.17 1011.85 1011.73 1011.73 1011.57 1011.69 1011.45 1011.45 1011.41 1011.53 1011.57 1011.65 1011.33 1011.05 1010.65 1010.37 1010.81 1011.01 1010.85 1009.97 1009.65 1009.77 1009.65 1009.17 1008.93 1008.85 1008.81 1008.81 1008.93 1009.05 1009.21 1009.29 1009.37 1009.41 1009.45 1009.57 1009.65 1009.65 1009.65 1009.69 1009.69 1009.73 1009.77 1009.81 1009.85 1009.89 1010.01
1016.25 1016.13 1016.01 1015.85 1015.61 1015.21 1015.01 1014.85 1014.73 1014.73 1014.73 1014.53 1014.25 1013.93 1013.61 1013.33 1013.05 1012.93 1012.97 1012.97 1012.85 1012.69 1012.65 1012.61 1012.69 1012.21 1012.09 1012.17 1011.85 1011.57 1011.61 1011.77 1011.81 1011.57 1011.45 1011.33 1011.37 1011.41 1011.37 1010.89 1010.69 1010.25 1010.05 1010.65 1010.77 1010.73 1009.81 1009.21 1009.21 1009.29 1008.85 1008.61 1008.61 1008.45 1008.41 1008.65 1008.81 1008.97 1009.13 1009.21 1009.25 1009.33 1009.41 1009.41 1009.37 1009.37 1009.45 1009.49 1009.49 1009.53 1009.61 1009.69 1009.73 1009.81
1016.13 1015.97 1015.81 1015.73 1015.57 1015.25 1015.09 1014.93 1015.21 1015.17 1015.01 1014.73 1014.33 1013.97 1013.61 1013.37 1013.21 1013.13 1012.89 1012.77 1012.69 1012.53 1012.25 1012.09 1011.97 1011.85 1011.69 1011.61 1011.57 1011.41 1011.25 1011.21 1011.09 1011.05 1011.17 1011.13 1011.05 1010.85 1010.49 1010.33 1010.17 1010.05 1009.85 1010.13 1010.65 1010.89 1009.65 1008.81 1009.13 1009.01 1008.73 1008.57 1008.45 1008.09 1008.05 1008.37 1008.65 1008.85 1008.93 1008.97 1009.01 1009.05 1009.09 1009.09 1009.01 1009.05 1009.13 1009.21 1009.25 1009.25 1009.29 1009.37 1009.49 1009.53
1015.89 1015.73 1015.69 1015.65 1015.53 1015.25 1015.05 1015.17 1015.45 1015.45 1015.25 1014.81 1014.37 1013.93 1013.45 1013.01 1012.73 1012.73 1012.61 1012.65 1012.57 1012.45 1012.29 1012.05 1011.89 1011.65 1011.53 1011.61 1011.61 1011.49 1011.45 1011.37 1011.25 1011.05 1010.77 1010.81 1010.85 1010.77 1010.73 1010.65 1010.05 1010.01 1009.57 1009.73 1010.33 1010.41 1009.77 1008.89 1009.05 1008.85 1008.41 1008.29 1008.37 1008.17 1008.13 1008.53 1008.57 1008.73 1008.77 1008.81 1008.85 1008.85 1008.81 1008.73 1008.69 1008.73 1008.81 1008.89 1008.93 1008.97 1009.01 1009.05 1009.17 1009.25
1015.81 1015.65 1015.53 1015.57 1015.37 1015.09 1015.05 1015.25 1015.53 1015.53 1015.29 1014.73 1014.25 1013.77 1013.33 1012.93 1012.61 1012.49 1012.29 1012.37 1012.45 1012.37 1012.25 1012.17 1012.01 1011.89 1011.69 1011.57 1011.49 1011.41 1011.37 1011.45 1011.21 1011.09 1011.13 1011.05 1010.73 1010.93 1010.93 1010.37 1010.09 1009.89 1009.61 1009.65 1009.65 1009.89 1009.89 1009.13 1009.09 1009.05 1008.61 1008.49 1008.37 1008.33 1008.21 1008.41 1008.65 1008.69 1008.69 1008.73 1008.73 1008.61 1008.49 1008.41 1008.49 1008.57 1008.61 1008.69 1008.73 1008.77 1008.81 1008.89 1009.01 1009.05
1015.77 1015.49 1015.41 1015.33 1015.21 1015.13 1015.05 1015.37 1015.57 1015.53 1015.25 1014.73 1014.21 1013.81 1013.37 1012.97 1012.73 1012.57 1012.41 1012.45 1012.33 1012.13 1012.09 1012.01 1011.85 1011.73 1011.57 1011.37 1011.25 1011.13 1011.05 1011.05 1011.09 1011.05 1011.05 1010.37 1010.53 1010.77 1010.57 1010.61 1010.29 1009.85 1009.61 1009.49 1009.41 1009.97 1009.65 1009.09 1008.81 1009.01 1008.57 1008.45 1008.21 1008.17 1008.05 1008.13 1008.33 1008.41 1008.53 1008.49 1008.41 1008.37 1008.29 1008.33 1008.45 1008.57 1008.65 1008.73 1008.77 1008.77 1008.81 1008.89 1008.93 1008.81
1015.61 1015.25 1015.05 1015.05 1014.85 1014.93 1015.21 1015.57 1015.61 1015.57 1015.25 1014.73 1014.25 1013.77 1013.41 1013.01 1012.85 1012.69 1012.61 1012.45 1012.25 1012.09 1011.97 1011.81 1011.61 1011.53 1011.29 1010.89 1010.65 1010.57 1010.69 1010.65 1010.65 1010.61 1010.49 1010.41 1010.53 1010.77 1010.73 1010.45 1010.21 1010.21 1009.61 1009.25 1009.29 1010.05 1009.53 1009.37 1008.85 1009.01 1009.21 1009.29 1008.45 1008.05 1008.01 1007.89 1007.97 1007.93 1008.45 1008.37 1008.09 1008.17 1008.21 1008.29 1008.37 1008.49 1008.65 1008.73 1008.77 1008.85 1008.89 1008.85 1008.85 1008.29
1015.49 1015.17 1014.97 1014.73 1014.77 1015.29 1015.49 1015.61 1015.57 1015.45 1015.29 1014.81 1014.09 1013.65 1013.37 1013.13 1012.85 1012.57 1012.53 1012.37 1012.17 1011.93 1011.77 1011.45 1011.25 1011.09 1011.05 1010.65 1010.33 1010.25 1010.25 1010.21 1010.21 1010.29 1010.09 1010.09 1010.29 1010.53 1010.69 1010.45 1010.45 1010.29 1009.65 1009.17 1009.09 1009.65 1009.69 1009.57 1009.33 1008.73 1009.09 1009.73 1009.57 1008.53 1007.89 1007.85 1007.81 1007.89 1007.57 1007.61 1007.53 1008.05 1008.05 1008.21 1008.29 1008.53 1008.61 1008.65 1008.77 1008.81 1008.77 1008.77 1008.65 1008.21
1015.57 1015.33 1015.09 1014.89 1014.85 1015.33 1015.41 1015.45 1015.33 1015.17 1014.89 1014.53 1014.05 1013.65 1013.57 1013.33 1013.21 1013.05 1012.57 1012.17 1012.01 1011.69 1011.37 1011.13 1010.93 1010.85 1010.69 1010.53 1010.45 1010.25 1010.17 1010.13 1010.17 1010.13 1010.13 1009.85 1009.81 1010.29 1010.41 1010.33 1010.29 1010.05 1009.45 1009.61 1009.53 1009.81 1010.13 1009.69 1009.49 1009.25 1009.29 1009.41 1009.09 1009.13 1008.25 1008.05 1007.73 1007.97 1007.73 1007.57 1007.81 1008.13 1007.65 1007.69 1008.01 1008.45 1008.81 1008.89 1008.81 1008.81 1008.85 1008.81 1008.81 1008.65
1015.69 1015.49 1015.21 1014.89 1014.97 1015.33 1015.37 1015.29 1015.05 1014.85 1014.61 1014.21 1013.93 1013.73 1013.73 1013.49 1013.25 1012.97 1012.45 1012.09 1011.81 1011.57 1011.37 1011.13 1010.85 1010.57 1010.53 1010.53 1010.53 1010.41 1010.17 1010.05 1010.09 1010.05 1010.01 1010.05 1009.93 1009.85 1009.85 1010.13 1010.45 1010.45 1009.93 1009.73 1009.69 1009.77 1009.93 1009.93 1009.45 1009.65 1009.77 1009.77 1009.33 1009.01 1008.93 1008.29 1008.17 1007.81 1007.73 1007.69 1007.53 1007.81 1007.65 1008.13 1008.21 1008.49 1008.89 1008.89 1008.77 1008.81 1008.97 1009.01 1009.05 1009.05
1015.77 1015.33 1015.13 1014.97 1015.29 1015.37 1015.29 1015.09 1014.81 1014.61 1014.45 1013.97 1013.81 1013.81 1013.57 1013.33 1013.09 1012.69 1012.29 1012.17 1011.97 1011.77 1011.53 1011.25 1011.13 1011.01 1010.77 1010.73 1010.73 1010.73 1010.65 1010.33 1010.21 1010.09 1010.05 1010.01 1010.01 1010.05 1009.65 1009.45 1009.69 1009.93 1009.85 1009.85 1009.69 1009.61 1009.81 1010.09 1009.61 1009.45 1009.57 1009.61 1009.73 1008.97 1008.89 1008.77 1008.85 1008.21 1008.05 1007.73 1007.69 1007.53 1007.25 1007.45 1007.89 1008.69 1008.93 1009.21 1009.21 1009.33 1009.21 1009.17 1009.25 1009.29
1015.61 1015.37 1015.29 1015.37 1015.37 1015.25 1015.13 1014.93 1014.65 1014.37 1014.33 1013.97 1013.85 1013.61 1013.37 1013.05 1012.65 1012.33 1012.13 1011.93 1011.81 1011.77 1011.65 1011.49 1011.29 1011.09 1010.93 1010.93 1010.89 1010.81 1010.65 1010.49 1010.29 1010.13 1010.05 1010.01 1009.97 1009.97 1009.89 1010.01 1009.77 1009.61 1009.85 1009.77 1009.57 1009.21 1009.37 1009.57 1009.41 1009.21 1009.37 1009.73 1009.81 1009.81 1009.89 1008.89 1008.49 1008.61 1008.89 1008.45 1008.13 1008.01 1007.73 1007.65 1007.85 1008.21 1008.49 1008.85 1009.09 1009.09 1009.13 1009.17 1009.17 1009.21
1015.53 1015.49 1015.53 1015.37 1015.09 1015.05 1014.97 1014.65 1014.37 1014.09 1013.93 1013.81 1013.61 1013.41 1013.13 1012.69 1012.37 1012.41 1012.25 1012.17 1012.13 1012.09 1011.89 1011.61 1011.37 1011.13 1010.93 1010.77 1010.73 1010.65 1010.61 1010.45 1010.29 1010.21 1010.17 1010.09 1010.01 1009.77 1009.73 1009.61 1009.41 1009.29 1009.21 1009.09 1009.17 1009.37 1009.73 1009.89 1009.33 1008.97 1009.09 1009.29 1009.77 1009.53 1009.09 1009.01 1008.69 1009.05 1009.17 1009.01 1009.17 1008.57 1008.57 1008.45 1008.33 1008.85 1008.97 1008.81 1009.13 1009.45 1009.65 1009.77 1009.81 1009.73
1015.49 1015.33 1015.17 1014.85 1014.69 1014.69 1014.61 1014.41 1014.21 1014.05 1013.81 1013.61 1013.37 1013.13 1012.89 1012.65 1012.69 1012.61 1012.61 1012.49 1012.41 1012.29 1012.13 1011.89 1011.65 1011.33 1011.05 1010.97 1010.81 1010.73 1010.61 1010.49 1010.41 1010.33 1010.37 1010.37 1010.17 1009.85 1009.73 1009.77 1009.61 1009.25 1008.93 1009.13 1009.25 1009.41 1009.49 1009.57 1009.73 1009.53 1009.01 1009.25 1009.53 1009.57 1009.33 1009.41 1009.29 1009.05 1009.05 1009.17 1009.21 1008.81 1008.93 1009.13 1009.09 1009.01 1009.21 1009.37 1009.57 1009.85 1010.09 1010.21 1010.41 1010.25
1015.33 1015.01 1014.61 1014.41 1014.65 1014.65 1014.57 1014.37 1014.13 1013.93 1013.65 1013.37 1013.13 1012.93 1012.81 1012.81 1012.77 1012.69 1012.57 1012.57 1012.61 1012.61 1012.41 1012.13 1011.77 1011.49 1011.21 1010.97 1010.93 1010.85 1010.77 1010.69 1010.57 1010.49 1010.45 1010.41 1010.33 1010.21 1009.89 1009.77 1009.65 1009.29 1009.25 1009.13 1009.45 1009.65 1009.57 1009.57 1009.65 1009.77 1009.85 1009.97 1009.89 1009.81 1009.65 1009.49 1009.65 1009.53 1009.53 1009.73 1009.77 1009.93 1009.25 1008.97 1009.13 1009.29 1009.33 1009.49 1009.85 1010.09 1010.29 1010.49 1010.65 1010.69
1015.49 1014.81 1014.21 1014.25 1014.57 1014.69 1014.45 1014.21 1014.01 1013.89 1013.69 1013.49 1013.29 1013.13 1012.97 1012.85 1012.73 1012.61 1012.57 1012.57 1012.57 1012.53 1012.33 1012.05 1011.73 1011.41 1011.21 1011.13 1011.05 1010.93 1010.85 1010.77 1010.73 1010.65 1010.57 1010.53 1010.53 1010.41 1010.25 1010.01 1009.73 1009.61 1010.05 1009.61 1009.73 1009.85 1010.01 1010.05 1010.05 1010.17 1010.41 1010.49 1010.45 1010.21 1009.69 1009.65 1009.97 1010.09 1010.13 1010.13 1009.97 1009.61 1009.29 1009.21 1009.09 1009.01 1009.33 1009.65 1010.21 1010.77 1011.09 1011.17 1011.29 1011.33
1015.25 1014.41 1014.37 1014.69 1014.97 1014.93 1014.73 1014.57 1014.49 1014.29 1014.05 1013.77 1013.45 1013.25 1013.13 1012.89 1012.69 1012.65 1012.73 1012.85 1012.73 1012.41 1012.13 1011.89 1011.65 1011.33 1011.13 1011.17 1011.05 1010.97 1010.89 1010.89 1010.85 1010.81 1010.73 1010.69 1010.65 1010.65 1010.57 1010.37 1009.65 1009.45 1009.53 1009.93 1010.05 1010.17 1010.45 1010.65 1010.65 1010.77 1011.05 1011.25 1011.41 1011.25 1010.85 1010.65 1010.61 1010.45 1010.41 1010.25 1010.13 1010.01 1009.97 1009.61 1009.69 1009.85 1009.85 1010.17 1010.69 1011.09 1011.61 1011.81 1011.89 1012.01
1014.89 1014.69 1015.01 1015.25 1015.37 1015.25 1015.09 1014.93 1014.81 1014.65 1014.45 1014.21 1013.93 1013.61 1013.41 1013.13 1012.85 1013.01 1013.01 1013.05 1012.85 1012.45 1012.17 1011.89 1011.69 1011.45 1011.25 1011.13 1011.13 1011.05 1011.01 1010.97 1010.93 1010.85 1010.81 1010.81 1010.69 1010.77 1010.65 1010.41 1009.89 1009.57 1009.61 1009.93 1010.29 1010.29 1010.65 1010.97 1011.09 1011.25 1011.41 1011.73 1011.89 1011.97 1012.01 1011.93 1011.73 1011.37 1010.85 1010.65 1010.69 1010.73 1010.77 1010.61 1010.53 1010.57 1010.65 1010.81 1011.09 1011.57 1012.01 1012.33 1012.49 1012.53
1014.81 1015.33 1015.53 1015.65 1015.61 1015.61 1015.45 1015.37 1015.21 1015.01 1014.73 1014.53 1014.25 1014.01 1013.69 1013.37 1013.13 1013.05 1013.01 1012.97 1012.77 1012.53 1012.21 1011.81 1011.57 1011.41 1011.33 1011.29 1011.25 1011.21 1011.17 1011.13 1011.09 1010.97 1010.81 1010.69 1010.73 1010.73 1010.61 1010.57 1010.37 1010.05 1009.85 1009.89 1010.21 1010.17 1010.45 1010.81 1011.05 1011.37 1011.49 1011.57 1011.81 1012.29 1012.45 1012.49 1012.41 1012.05 1011.25 1011.09 1011.25 1011.37 1011.53 1011.53 1011.41 1011.37 1011.45 1011.61 1011.61 1012.09 1012.57 1012.93 1013.09 1013.01
1015.65 1015.93 1016.13 1016.05 1016.09 1015.97 1015.81 1015.65 1015.49 1015.33 1015.05 1014.81 1014.57 1014.25 1014.05 1013.77 1013.53 1013.41 1013.25 1013.05 1012.69 1012.45 1012.17 1011.97 1011.73 1011.61 1011.49 1011.41 1011.37 1011.21 1011.21 1011.21 1011.09 1010.97 1010.89 1010.77 1010.77 1010.73 1010.65 1010.77 1010.65 1010.53 1010.29 1009.93 1009.65 1009.77 1010.05 1010.33 1010.45 1010.65 1010.85 1011.33 1011.53 1011.85 1012.57 1012.93 1013.05 1012.89 1012.33 1011.73 1011.77 1011.97 1012.13 1012.25 1012.25 1012.17 1012.13 1012.29 1012.33 1012.41 1012.97 1013.69 1013.85 1013.77
1016.17 1016.45 1016.57 1016.53 1016.45 1016.29 1016.13 1015.85 1015.65 1015.45 1015.29 1015.09 1014.73 1014.45 1014.33 1014.13 1013.81 1013.65 1013.41 1013.09 1012.69 1012.45 1012.33 1012.01 1011.93 1011.77 1011.49 1011.37 1011.29 1011.37 1011.37 1011.29 1011.13 1010.97 1010.97 1011.01 1011.01 1011.01 1010.97 1010.81 1010.85 1010.93 1010.81 1010.85 1010.57 1010.57 1010.37 1010.13 1009.97 1010.21 1010.69 1011.49 1011.85 1012.77 1013.41 1013.05 1013.09 1013.21 1013.05 1012.25 1012.45 1012.61 1012.73 1012.81 1012.85 1012.93 1012.97 1013.01 1013.13 1013.29 1013.77 1014.09 1014.45 1014.49
1016.45 1016.61 1016.85 1016.85 1016.77 1016.57 1016.37 1016.13 1015.93 1015.61 1015.37 1015.17 1014.97 1014.77 1014.53 1014.29 1013.89 1013.73 1013.53 1013.29 1013.01 1012.65 1012.37 1012.13 1012.09 1011.89 1011.61 1011.41 1011.41 1011.45 1011.45 1011.45 1011.37 1011.33 1011.29 1011.17 1011.13 1011.01 1011.01 1011.13 1011.33 1011.21 1011.01 1011.01 1011.05 1011.21 1011.13 1011.09 1010.85 1010.81 1010.97 1011.45 1011.97 1012.65 1013.45 1013.77 1013.73 1013.81 1013.53 1012.89 1013.01 1013.13 1013.01 1013.05 1013.29 1013.57 1013.69 1013.65 1013.69 1013.93 1014.01 1014.37 1014.85 1014.93
1016.49 1016.69 1016.93 1017.01 1016.93 1016.77 1016.57 1016.37 1016.17 1015.97 1015.61 1015.29 1015.01 1014.85 1014.53 1014.25 1013.97 1013.81 1013.73 1013.65 1013.45 1013.13 1012.69 1012.41 1012.29 1011.97 1011.61 1011.49 1011.45 1011.57 1011.57 1011.61 1011.61 1011.57 1011.49 1011.41 1011.29 1011.29 1011.37 1011.45 1011.57 1011.49 1011.41 1011.53 1011.65 1011.81 1011.85 1012.01 1012.21 1012.37 1012.37 1012.69 1013.33 1014.05 1014.37 1014.73 1015.13 1014.93 1014.41 1013.93 1013.61 1013.53 1013.65 1013.73 1013.97 1014.05 1014.21 1014.41 1014.53 1014.45 1014.49 1014.65 1014.81 1014.93
1016.57 1016.65 1016.85 1016.97 1016.93 1016.85 1016.69 1016.53 1016.25 1015.97 1015.69 1015.37 1015.05 1014.93 1014.69 1014.41 1014.13 1013.97 1013.93 1013.89 1013.73 1013.49 1013.25 1012.93 1012.69 1012.37 1012.01 1011.81 1011.77 1011.69 1011.73 1011.73 1011.81 1011.93 1011.97 1011.89 1011.85 1011.81 1011.85 1011.85 1011.85 1011.85 1011.81 1011.97 1012.13 1012.49 1012.81 1013.17 1013.33 1013.37 1013.41 1013.61 1014.01 1014.25 1014.37 1014.65 1015.01 1015.09 1015.01 1014.89 1014.61 1014.41 1014.41 1014.05 1014.21 1014.33 1014.45 1014.49 1014.45 1014.49 1014.85 1014.93 1015.17 1015.37
1016.69 1016.69 1016.69 1016.77 1016.81 1016.81 1016.73 1016.53 1016.29 1015.97 1015.69 1015.45 1015.25 1015.21 1014.97 1014.53 1014.21 1014.17 1014.13 1014.09 1014.05 1013.93 1013.65 1013.33 1013.13 1012.89 1012.65 1012.37 1012.25 1012.25 1012.37 1012.41 1012.37 1012.37 1012.33 1012.33 1012.37 1012.41 1012.41 1012.29 1012.37 1012.33 1012.61 1013.05 1013.21 1013.21 1013.37 1013.69 1013.65 1013.57 1013.45 1013.53 1013.69 1013.85 1014.01 1014.45 1015.37 1015.77 1015.77 1015.85 1015.57 1015.17 1015.05 1015.01 1014.97 1014.85 1014.81 1014.77 1014.65 1014.69 1014.93 1015.25 1015.53 1015.65
1016.77 1016.61 1016.61 1016.65 1016.81 1016.77 1016.65 1016.57 1016.37 1016.09 1015.89 1015.73 1015.61 1015.53 1015.13 1014.65 1014.37 1014.29 1014.17 1014.25 1014.21 1014.21 1014.09 1013.85 1013.65 1013.53 1013.29 1013.05 1012.93 1012.81 1012.81 1012.89 1012.97 1013.09 1013.09 1013.09 1013.13 1013.13 1013.13 1013.09 1013.33 1013.45 1013.61 1013.97 1014.13 1014.17 1014.05 1013.89 1013.81 1013.85 1013.81 1013.85 1014.01 1014.25 1015.05 1015.53 1016.13 1016.41 1016.49 1016.37 1016.25 1016.13 1015.89 1015.81 1015.77 1015.73 1015.69 1015.49 1015.13 1015.01 1015.21 1015.45 1015.49 1015.77
1016.81 1016.65 1016.61 1016.65 1016.69 1016.69 1016.65 1016.53 1016.33 1016.09 1015.97 1015.89 1015.81 1015.61 1015.13 1014.81 1014.61 1014.53 1014.53 1014.53 1014.53 1014.41 1014.37 1014.25 1014.05 1013.97 1013.97 1013.85 1013.81 1013.69 1013.65 1013.57 1013.53 1013.57 1013.65 1013.65 1013.65 1013.73 1013.81 1013.81 1013.81 1013.93 1014.09 1014.25 1014.33 1014.41 1014.49 1014.53 1014.57 1014.65 1014.77 1014.81 1014.97 1014.89 1015.57 1016.05 1016.25 1016.41 1016.57 1016.53 1016.61 1016.61 1016.57 1016.49 1016.37 1016.29 1016.25 1016.29 1016.25 1016.17 1015.89 1015.53 1015.53 1016.37
1016.89 1016.77 1016.65 1016.61 1016.65 1016.73 1016.69 1016.61 1016.41 1016.21 1016.09 1016.05 1015.89 1015.57 1015.29 1015.13 1014.97 1014.85 1014.85 1014.81 1014.73 1014.65 1014.45 1014.37 1014.29 1014.25 1014.25 1014.33 1014.37 1014.37 1014.37 1014.33 1014.25 1014.17 1014.13 1014.21 1014.21 1014.25 1014.33 1014.41 1014.41 1014.41 1014.41 1014.53 1014.73 1014.93 1015.05 1015.17 1015.21 1015.21 1015.33 1015.69 1015.77 1015.81 1016.13 1016.21 1016.37 1016.53 1016.65 1016.77 1016.81 1016.77 1016.93 1016.97 1016.89 1016.73 1016.61 1016.65 1016.73 1016.61 1016.57 1016.73 1016.93 1017.05
1016.93 1016.93 1016.77 1016.65 1016.73 1016.77 1016.81 1016.65 1016.49 1016.25 1016.17 1016.17 1016.09 1015.85 1015.57 1015.29 1015.13 1015.05 1015.05 1014.97 1014.85 1014.69 1014.53 1014.45 1014.45 1014.49 1014.49 1014.49 1014.57 1014.69 1014.77 1014.81 1014.81 1014.85 1014.81 1014.77 1014.77 1014.81 1014.81 1014.85 1015.05 1015.21 1015.37 1015.33 1015.21 1015.33 1015.41 1015.49 1015.61 1015.69 1015.89 1016.21 1016.25 1016.33 1016.45 1016.53 1016.81 1016.93 1017.13 1017.17 1017.33 1017.37 1017.37 1017.37 1017.33 1017.45 1017.57 1017.81 1018.01 1017.77 1017.65 1017.61 1017.61 1017.61
Wind_Speed
8 7 7 6 6 5 4 5 5 5 4 6 7 6 7 6 7 8 9 8 8 7 7 6 1 3 5 6 5 5 6 3 4 7 4 2 2 5 2 3 5 8 12 13 14 15 16 17 16 15 15 13 10 5 13 15 16 17 17 18 20 21 22 23 21 20 21 21 21 22 25 26 24 21
7 7 7 6 6 5 5 5 6 5 6 6 6 6 6 6 7 7 8 8 8 8 8 7 4 2 4 4 5 7 7 10 3 5 6 6 0 6 2 3 3 6 7 8 10 11 11 11 11 11 10 9 7 5 9 14 17 20 21 20 20 20 20 21 18 17 19 20 20 20 21 25 25 23
5 6 6 6 6 5 6 6 5 5 6 5 5 6 6 6 6 7 6 9 7 7 8 7 7 6 7 7 5 7 7 3 3 6 7 7 7 4 7 7 5 3 4 4 6 6 6 7 7 7 7 6 4 5 7 8 9 12 14 17 19 18 18 17 16 16 16 16 17 18 21 22 22 22
5 6 7 6 6 6 6 6 6 5 5 5 5 5 5 5 6 6 6 7 9 7 8 8 8 8 7 6 7 7 6 3 9 5 5 4 2 9 7 11 8 6 2 2 1 1 2 3 3 4 5 3 2 3 5 6 7 8 10 13 15 16 15 14 15 15 15 15 16 16 18 19 18 17
6 6 6 6 6 6 7 6 7 7 6 6 5 5 5 5 5 6 6 8 9 8 7 8 8 7 7 7 6 7 6 6 5 5 6 7 7 7 9 6 13 10 7 3 1 1 1 1 1 1 1 2 3 4 5 7 8 9 10 10 10 11 12 14 15 15 13 14 16 17 16 17 17 16
6 7 7 6 7 6 7 7 8 7 7 6 6 6 5 6 6 6 7 8 9 9 8 8 7 9 7 8 5 6 7 8 8 9 7 7 7 7 7 9 6 13 9 7 6 3 2 3 3 0 1 2 4 5 6 7 7 8 8 10 10 9 10 11 12 14 13 13 14 16 17 16 16 16
6 6 7 6 7 7 8 8 8 8 8 6 7 7 6 7 7 7 7 7 9 10 9 8 9 9 8 8 8 8 8 8 8 9 9 10 9 7 7 7 9 12 10 12 8 7 5 5 5 3 2 3 4 4 4 3 3 4 6 8 9 8 7 8 9 10 11 12 12 14 16 16 16 15
5 5 6 6 7 8 8 8 8 8 7 7 7 8 8 8 8 7 7 7 8 9 10 9 10 9 9 9 9 9 9 9 9 9 10 9 10 11 10 10 10 8 9 6 6 6 7 7 7 6 5 4 5 5 4 4 5 5 6 8 9 9 6 6 7 7 8 9 11 12 13 14 15 13
6 6 7 7 7 8 8 8 8 8 9 8 8 9 8 8 7 7 7 8 8 9 10 10 9 9 10 9 8 7 9 9 9 10 9 9 10 10 10 10 10 3 16 11 12 13 13 12 10 11 11 8 7 7 6 6 6 6 7 8 9 10 7 5 6 7 7 8 8 9 11 13 12 11
6 7 8 8 7 8 8 8 8 8 9 8 8 8 8 8 8 8 8 8 8 9 9 9 10 9 9 9 8 8 8 9 9 9 9 10 10 10 10 9 8 9 9 8 9 13 13 14 13 10 8 8 8 7 6 7 7 7 8 9 10 11 10 6 5 5 5 5 6 8 10 12 13 13
8 8 8 7 7 7 8 8 9 9 9 7 9 8 8 8 8 8 8 8 9 9 9 9 9 9 8 8 9 8 8 9 9 9 8 9 8 8 8 8 8 8 9 10 11 12 13 14 14 10 9 10 11 10 9 8 8 9 9 10 10 11 11 8 4 5 6 5 5 7 8 10 12 13
8 8 7 6 6 7 7 8 8 8 8 8 9 8 8 8 9 9 9 9 9 10 10 10 9 8 9 8 8 8 8 8 8 8 8 8 8 7 7 8 9 7 8 10 10 9 10 13 15 17 16 12 11 12 12 12 11 11 11 11 11 12 11 9 5 5 6 6 5 5 7 8 10 11
7 7 7 6 6 7 8 10 9 8 8 8 8 8 8 9 9 9 9 9 9 9 10 10 9 9 9 8 8 8 7 8 8 7 7 8 8 7 7 8 7 7 8 9 9 8 8 9 9 9 8 8 10 13 15 13 14 17 13 15 14 10 9 9 9 6 5 6 5 5 6 7 9 10
6 6 7 6 8 8 8 9 9 10 10 10 9 9 9 9 9 9 9 9 9 9 10 10 10 10 10 9 8 9 9 8 7 9 7 8 7 6 7 7 7 6 8 8 8 7 7 8 10 9 9 9 10 9 7 8 8 5 11 6 4 6 8 10 10 8 6 6 6 6 6 6 8 10
6 7 7 7 7 8 8 9 10 9 9 10 11 12 12 12 10 10 11 10 9 8 8 8 9 9 9 9 8 9 8 7 7 7 6 6 6 6 6 7 6 4 4 5 7 8 7 8 9 9 9 10 10 9 10 5 6 3 4 5 5 7 8 10 10 9 7 7 7 7 7 7 7 9
7 7 7 7 6 6 6 7 9 10 11 11 12 13 13 13 14 15 12 10 10 10 10 10 11 10 9 9 8 8 8 7 7 6 6 6 7 7 7 6 7 4 5 6 7 8 8 7 8 8 8 8 8 9 9 5 5 6 9 9 9 9 9 10 10 9 8 8 8 8 8 8 7 8
6 7 6 7 6 6 9 8 9 9 10 12 14 15 15 15 15 13 14 14 13 11 11 10 11 11 11 11 10 9 9 8 9 7 7 7 7 7 7 7 6 6 4 7 7 8 8 6 7 8 7 7 6 7 10 12 10 6 6 9 10 10 11 11 11 9 8 8 9 8 8 8 8 7
7 7 7 7 7 8 9 9 10 10 11 11 12 12 12 12 14 14 14 15 16 14 11 10 11 10 9 10 10 9 8 9 8 8 8 7 7 7 8 8 8 7 6 7 6 8 8 6 6 7 6 5 6 7 6 7 9 8 8 9 9 10 12 12 10 9 7 8 9 9 8 8 7 6
7 7 6 7 8 9 10 9 8 10 12 12 12 14 14 14 12 12 12 11 10 9 9 10 10 9 8 9 9 9 8 9 8 7 8 8 9 9 9 9 8 8 7 8 7 9 7 5 6 6 6 6 7 6 4 10 7 5 5 7 8 10 11 10 9 7 7 8 9 9 9 8 7 7
7 7 7 7 8 9 11 8 13 12 11 12 13 14 14 14 13 11 10 10 10 11 11 10 10 9 9 9 8 9 8 8 9 10 7 8 9 9 8 8 7 7 4 7 7 8 8 6 7 7 6 6 6 5 4 8 5 6 5 7 7 8 7 6 5 5 7 8 9 10 10 9 8 8
7 7 8 9 10 10 10 9 8 11 14 12 14 14 15 13 12 11 8 6 8 11 12 12 13 13 13 12 13 13 11 9 10 8 8 9 8 8 9 8 7 6 4 6 8 7 8 7 6 7 6 6 6 4 4 4 5 8 7 7 7 6 5 5 4 4 5 6 7 7 8 7 6 7
7 9 12 11 11 10 11 9 9 12 13 12 13 13 13 14 12 9 6 4 5 8 10 12 15 16 13 13 14 14 14 13 10 8 10 9 6 8 8 8 6 5 5 5 6 7 7 6 5 6 5 6 3 2 1 3 7 11 9 10 7 5 5 5 4 3 4 2 2 3 3 4 4 5
8 8 9 13 13 7 7 7 9 12 12 11 12 12 11 12 10 7 8 8 8 7 7 7 7 10 16 13 8 8 13 15 14 10 9 8 7 8 7 7 7 6 5 2 2 6 5 5 3 4 5 4 2 2 1 2 2 2 7 6 6 8 5 6 5 6 6 5 5 5 2 1 4 5
9 9 9 11 9 5 6 8 10 11 12 10 11 11 10 10 10 9 9 9 9 9 9 9 9 8 8 7 6 6 6 7 8 9 9 8 7 6 7 7 7 7 4 1 3 5 5 6 6 4 4 5 3 2 2 2 2 2 2 3 3 5 6 7 5 7 8 8 8 7 6 6 6 4
10 9 10 10 11 10 12 11 12 12 12 12 11 9 8 8 9 11 10 10 11 8 8 7 7 5 5 5 5 6 5 4 1 2 5 6 5 3 4 5 7 6 5 4 2 1 4 5 5 5 4 4 4 5 3 1 1 1 2 3 2 5 4 4 5 5 7 7 9 10 9 8 10 8
10 10 10 12 12 15 14 13 13 12 11 14 8 9 11 11 10 9 10 9 9 9 7 7 6 5 5 4 4 5 6 6 6 5 4 4 4 4 5 4 6 6 5 3 5 3 5 6 4 5 5 5 4 3 5 1 3 2 1 3 2 1 3 1 2 4 3 3 4 5 7 9 8 9
10 10 11 12 15 14 13 13 13 12 12 11 8 11 11 9 11 12 7 7 7 8 8 7 6 6 6 6 5 5 6 6 6 5 5 4 4 6 6 2 3 5 4 5 6 4 3 3 5 4 4 4 6 5 2 1 1 2 4 1 3 2 3 1 2 5 4 5 5 6 7 9 10 9
10 11 12 13 14 13 13 13 12 12 8 7 9 10 9 11 9 5 6 5 6 6 7 7 6 6 5 4 4 4 5 5 5 5 5 5 5 6 4 5 7 5 6 6 6 5 5 5 4 2 3 4 4 4 4 3 1 3 5 6 5 1 2 4 3 3 4 7 5 4 1 5 5 3
11 13 13 13 14 12 10 11 9 6 6 7 8 7 8 9 6 6 7 8 7 7 7 7 7 6 6 6 5 4 5 6 5 4 4 4 5 5 4 5 6 4 3 3 3 4 4 7 6 3 3 1 1 3 4 4 4 3 4 3 4 5 6 1 3 6 5 6 8 7 7 6 6 7
14 12 10 12 8 4 7 8 7 7 6 7 8 7 7 6 6 6 7 7 8 7 8 8 8 7 7 6 6 6 6 5 4 2 3 4 4 4 4 4 4 5 2 3 3 4 3 4 5 7 2 2 1 2 3 4 4 4 4 5 6 3 5 7 7 6 6 8 8 7 7 7 8 7
11 10 11 5 4 7 7 6 6 7 7 7 8 7 7 7 7 7 7 7 7 7 7 8 8 7 7 6 5 5 5 5 4 2 2 3 3 4 4 5 5 2 1 3 6 6 6 6 7 8 6 5 3 5 5 4 4 5 6 6 6 4 5 3 4 4 5 7 8 8 7 7 8 9
12 10 8 6 8 8 7 8 8 8 8 7 7 8 7 6 6 6 8 8 7 5 7 7 8 7 6 6 5 4 4 4 4 3 3 3 2 3 3 5 5 4 5 4 5 8 9 8 8 9 9 7 7 6 4 4 5 5 5 6 5 4 5 6 4 4 8 7 8 8 8 8 8 8
11 8 9 8 8 9 9 9 9 9 9 9 9 8 8 7 7 8 7 8 7 9 9 8 8 7 6 5 4 4 3 2 3 2 2 2 2 2 2 4 5 3 3 4 5 7 7 9 11 12 11 10 10 10 7 5 6 6 6 6 5 5 6 6 7 6 7 7 7 7 9 9 9 9
8 10 9 9 8 9 9 9 9 9 9 9 9 9 9 8 8 8 8 9 9 8 9 8 8 7 6 5 4 4 4 3 3 2 3 2 1 2 2 2 2 2 1 2 4 5 6 6 7 8 10 11 12 13 10 8 6 6 6 6 6 6 7 7 8 9 8 7 6 7 8 9 10 10
11 10 9 9 9 9 9 9 9 10 10 10 9 9 9 9 9 9 9 9 10 8 8 8 6 6 6 5 4 4 4 4 3 2 2 2 2 2 1 1 2 1 1 1 4 4 5 5 5 4 4 4 6 10 15 13 8 7 5 6 6 6 7 7 7 8 9 9 7 8 8 9 10 10
11 10 9 9 9 10 9 9 9 9 9 10 9 9 10 10 10 11 12 11 10 8 8 8 8 7 6 5 5 5 5 3 2 2 2 2 2 2 2 2 0 1 1 3 1 5 4 3 4 3 3 3 5 6 8 14 16 9 6 6 7 7 7 7 9 9 9 9 8 9 10 10 11 10
10 10 9 9 9 9 9 9 9 9 9 9 10 9 10 10 9 10 11 10 10 9 9 8 7 6 6 6 6 6 5 5 5 4 4 4 3 2 2 2 2 2 3 5 8 9 5 2 4 3 1 6 6 6 7 7 12 18 10 6 7 7 6 6 7 9 10 9 10 11 11 11 12 12
10 9 9 9 9 9 9 9 9 9 9 9 9 10 10 10 10 9 10 11 12 10 9 8 6 6 5 7 7 6 6 6 5 5 4 3 2 2 3 6 5 4 6 9 9 7 7 8 8 7 6 6 6 7 7 8 9 14 21 10 7 7 7 8 9 10 11 10 11 11 11 13 13 12
11 10 9 9 9 8 9 9 9 9 9 9 8 9 8 8 8 7 9 10 11 11 11 10 8 8 8 7 5 5 6 5 5 5 5 6 6 7 7 7 8 7 8 8 9 10 11 11 10 9 8 8 9 8 9 8 11 10 17 23 9 8 9 7 9 8 9 9 9 9 10 9 9 10
10 10 9 8 8 8 8 8 8 8 8 8 8 9 9 9 9 9 10 10 9 9 9 9 9 8 8 7 7 6 7 7 8 8 8 7 7 8 7 7 7 7 9 11 11 11 12 11 9 7 9 11 11 10 11 12 10 9 12 17 24 13 8 6 7 7 7 5 5 7 8 7 9 7
10 10 9 8 8 7 8 8 9 9 9 9 9 9 9 9 10 10 9 11 9 9 10 9 9 9 10 10 11 10 9 8 8 9 9 9 10 10 11 10 9 9 9 10 10 11 10 7 8 12 12 10 10 8 8 11 13 10 12 12 21 25 23 17 9 7 6 5 5 7 7 7 7 7
10 10 9 9 8 8 7 8 9 9 9 10 9 9 9 8 9 12 10 10 9 8 10 10 8 9 11 11 10 10 10 9 9 9 9 9 9 10 12 12 11 10 9 10 9 10 9 8 9 9 8 8 7 11 13 12 11 11 10 9 10 18 24 25 24 20 12 6 4 6 7 6 6 9
10 10 9 9 8 8 8 8 8 8 9 8 9 8 8 9 9 10 10 10 9 9 8 9 9 8 8 9 10 10 10 10 10 10 9 10 10 11 10 9 10 10 11 11 11 11 11 12 11 10 8 8 9 10 14 12 10 7 8 8 9 8 12 18 23 24 24 22 17 12 6 4 2 6
10 10 9 8 8 8 8 8 8 8 9 9 9 8 9 9 9 10 10 10 9 9 9 8 9 9 9 9 8 9 10 10 10 11 11 11 10 10 11 11 11 12 12 11 11 12 12 11 10 9 10 10 8 10 12 11 12 11 11 10 9 9 11 8 9 14 19 23 24 23 24 22 17 15
10 10 9 9 8 8 8 8 8 9 9 9 9 10 9 9 9 9 10 9 9 9 9 9 10 9 10 10 10 10 9 11 11 10 10 10 11 11 11 11 11 12 11 8 9 11 10 11 11 12 13 12 9 11 11 12 12 11 10 12 12 9 9 8 10 13 13 14 17 20 19 18 17 17
Wind_Direction
326 323 328 312 314 308 332 294 308 350 329 311 306 306 305 308 300 297 298 303 303 302 309 301 296 314 307 304 299 285 283 51 340 311 284 261 192 104 167 219 246 238 246 244 245 247 244 244 248 252 259 267 270 197 194 220 229 233 235 237 237 238 239 240 241 242 245 246 246 247 249 249 249 250
332 336 328 322 303 329 319 333 341 317 306 288 284 298 302 305 296 297 292 292 298 302 301 303 313 279 261 265 283 282 286 104 261 306 295 277 123 131 222 198 210 248 242 237 241 248 255 258 260 262 262 264 262 245 204 211 218 224 226 227 229 230 236 240 241 240 242 242 241 239 239 244 246 246
344 337 323 320 323 327 326 311 283 274 275 287 307 297 294 297 296 295 292 288 283 299 299 302 307 312 311 296 293 294 284 130 60 290 292 276 107 249 200 184 171 212 223 255 248 242 239 237 245 254 261 254 232 197 200 212 223 220 224 225 224 228 233 238 241 241 244 248 250 248 245 246 245 246
342 350 338 336 317 328 310 293 291 290 285 284 284 282 291 292 280 278 279 276 286 289 293 296 303 305 302 310 296 294 293 114 156 269 273 289 134 244 232 165 176 173 204 236 293 265 309 308 292 283 267 249 208 185 188 204 220 229 231 231 228 229 232 236 238 239 240 243 246 247 250 251 251 250
347 2 337 338 328 319 308 307 310 300 297 296 282 280 269 263 270 270 271 274 278 279 294 302 294 297 303 294 301 288 280 295 300 314 280 277 281 279 273 231 174 184 181 178 230 5 352 52 50 4 321 281 252 227 216 214 221 237 244 247 248 242 236 237 241 242 240 240 244 246 243 244 247 247
358 344 337 329 334 326 313 318 303 298 303 298 297 290 284 281 275 268 276 279 285 285 281 282 300 298 279 271 271 293 303 296 284 272 281 284 275 276 270 267 223 176 181 189 173 207 267 301 309 216 150 214 223 228 224 221 229 241 255 263 262 256 258 257 250 250 243 234 237 244 247 245 243 241
358 341 328 330 330 327 325 317 306 308 299 299 300 298 292 289 284 280 274 277 280 285 287 287 280 283 296 300 300 298 289 294 295 293 286 282 273 266 270 280 287 169 193 188 188 207 204 244 255 263 230 189 198 216 232 260 279 277 277 280 279 281 281 278 283 287 287 281 271 260 254 252 249 244
355 340 326 334 333 323 312 304 301 293 300 304 299 298 296 291 290 287 281 273 275 282 283 284 285 291 293 291 292 293 296 291 289 289 289 279 277 278 276 271 270 171 183 169 242 230 232 223 221 233 261 246 201 191 203 229 246 252 268 277 282 283 285 291 288 282 287 295 290 286 276 261 252 247
349 339 331 331 326 319 313 307 304 316 314 312 305 297 297 295 299 303 304 298 290 287 283 284 282 285 283 281 279 279 281 285 283 286 282 283 277 271 273 276 269 202 177 194 215 235 235 232 221 219 221 215 205 194 196 219 235 247 258 271 280 286 285 279 286 289 291 294 286 275 274 274 265 253
347 335 333 329 326 322 319 318 322 315 313 306 298 304 306 304 295 289 283 282 287 284 284 286 286 278 279 284 287 289 289 284 286 279 276 275 279 281 272 269 276 284 279 263 240 227 230 239 237 238 217 205 221 226 217 205 223 240 255 265 278 283 285 277 266 272 272 267 274 270 267 265 263 258
347 342 334 332 331 334 331 327 323 320 315 313 314 306 300 295 303 299 294 284 277 278 279 281 281 285 283 284 286 285 283 282 278 280 280 278 277 271 285 283 278 274 287 300 303 292 300 307 296 261 215 206 204 202 212 221 219 229 236 251 260 268 277 281 261 262 269 262 254 266 269 267 266 259
348 341 334 333 343 348 343 333 326 325 327 326 314 316 315 311 301 293 291 294 293 288 286 286 288 293 298 293 281 273 272 269 267 259 264 273 276 279 275 271 277 281 278 272 273 262 238 235 239 252 260 240 217 202 205 209 228 234 241 236 242 252 267 284 277 257 275 280 266 258 264 267 266 265
341 339 328 337 345 336 316 313 310 315 318 315 316 318 317 311 304 299 295 291 287 285 283 285 285 283 281 285 290 284 279 276 283 297 296 280 272 278 282 280 277 274 271 270 275 273 282 284 281 284 277 269 228 215 219 237 210 221 226 221 223 240 263 275 283 280 275 282 278 262 257 259 261 261
336 327 323 319 320 318 314 309 315 317 313 309 308 310 309 304 299 294 289 286 285 288 285 281 282 281 281 282 286 289 286 284 281 271 272 274 280 280 280 282 278 277 276 281 277 282 283 280 282 281 283 281 284 290 248 235 266 219 225 237 236 242 258 272 280 288 290 288 284 271 259 249 250 255
326 326 323 321 329 323 334 335 324 316 318 317 311 306 305 302 297 294 291 290 291 286 283 284 282 277 282 286 290 284 282 279 273 277 276 274 279 278 281 287 299 286 336 307 287 279 278 284 282 279 277 276 279 278 263 313 53 95 160 187 232 251 259 272 280 285 288 286 284 281 270 256 244 246
329 327 322 327 322 319 346 314 316 324 319 314 307 300 295 291 288 286 288 290 287 282 280 280 276 278 276 277 270 270 273 276 276 266 257 252 258 261 260 267 273 289 275 283 282 278 275 275 276 276 275 281 280 273 286 287 220 252 270 273 262 260 263 263 263 268 274 274 276 276 273 267 254 243
327 325 323 320 325 324 329 313 322 326 322 317 310 301 292 286 280 274 272 274 280 288 282 277 278 274 279 282 282 289 295 300 283 278 264 259 263 265 260 255 263 264 262 268 267 274 280 272 264 267 268 271 268 266 240 230 244 242 232 238 256 260 254 246 245 250 255 268 271 269 268 269 266 250
326 328 322 324 321 325 325 318 319 317 318 314 306 301 298 295 294 295 290 285 280 279 283 283 280 284 284 282 289 293 289 284 283 277 271 275 268 265 264 274 272 271 259 255 267 272 266 258 265 274 280 276 278 266 259 182 210 222 231 239 238 241 243 243 242 237 239 246 256 258 257 259 254 242
322 320 318 316 317 320 320 330 353 331 321 311 301 296 293 292 294 295 296 298 299 294 290 289 288 289 288 288 289 286 283 272 270 274 282 287 285 282 279 268 259 257 242 241 244 259 270 273 271 270 275 280 279 284 225 164 165 187 224 242 242 238 240 243 237 234 226 225 231 237 245 243 237 227
312 310 313 316 313 317 312 14 11 342 318 305 297 294 293 292 291 289 292 302 306 295 290 288 291 295 304 312 301 301 298 288 272 273 274 274 273 270 266 263 258 258 235 230 231 250 266 273 281 288 284 279 284 291 294 132 165 185 224 242 243 229 220 200 214 212 212 209 212 225 228 231 227 223
314 308 320 316 315 319 323 4 356 322 314 304 299 296 296 295 294 299 301 306 289 275 268 271 273 273 272 271 274 271 266 265 284 283 273 258 257 269 268 260 258 257 236 218 223 250 269 280 285 291 295 301 300 307 301 145 182 195 204 203 196 182 157 136 140 158 172 184 200 215 224 230 227 225
304 311 311 311 309 311 317 355 328 318 314 309 306 301 298 298 299 307 322 317 289 263 254 261 265 261 255 252 256 263 264 260 258 258 254 264 264 262 262 269 270 271 250 225 221 241 260 287 291 295 306 300 273 288 244 202 188 192 180 176 166 161 149 135 127 110 103 95 127 179 195 207 235 210
306 309 315 316 318 309 335 342 319 308 308 312 307 301 298 295 303 321 325 315 305 294 280 267 266 269 254 242 250 252 252 259 256 248 252 259 252 251 257 270 278 273 245 201 234 246 273 274 283 313 298 301 315 299 288 287 261 233 169 200 165 146 160 163 153 131 114 107 101 96 109 65 264 249
314 319 318 320 357 105 7 339 317 303 296 303 309 301 299 310 318 334 319 311 306 300 289 292 291 286 289 287 288 289 274 257 248 253 242 239 244 248 253 250 252 264 287 131 222 280 301 289 283 284 313 311 296 323 271 265 171 237 273 253 178 156 178 172 169 148 110 96 85 78 69 52 359 284
319 326 321 321 350 30 357 333 317 307 305 302 306 329 346 332 327 309 310 312 309 296 292 282 273 279 282 298 288 281 287 292 302 289 264 245 245 267 273 277 283 279 278 43 11 244 285 289 294 296 274 262 294 310 319 325 292 41 284 280 212 176 238 205 168 136 102 110 103 92 73 67 40 16
320 323 324 317 1 1 337 318 310 308 307 301 310 344 327 310 302 302 308 314 319 311 313 318 315 313 309 309 303 306 308 319 327 321 315 321 306 249 213 232 251 264 283 145 185 267 276 279 291 311 333 331 305 280 302 296 33 315 267 255 298 56 209 321 258 120 135 145 121 94 91 84 70 56
317 319 323 335 350 327 317 309 306 305 305 299 358 324 315 306 290 288 320 329 329 332 331 327 331 327 322 331 342 320 306 310 317 319 326 320 292 267 263 249 238 264 258 300 275 254 262 287 283 293 307 321 312 309 318 334 85 359 295 26 299 299 284 197 95 96 156 140 98 98 109 106 94 75
316 319 332 330 312 300 300 297 297 296 281 342 316 304 303 299 291 330 317 330 336 334 331 329 329 328 329 325 311 314 315 311 314 308 309 306 301 301 307 269 245 228 247 233 253 284 278 267 274 283 301 307 317 332 329 286 5 17 349 353 330 35 324 348 19 101 72 107 116 122 72 47 54 80
313 313 305 294 285 284 281 294 295 320 0 323 302 299 304 329 5 356 351 355 352 336 333 325 324 321 329 334 337 329 309 299 292 301 311 317 303 282 280 285 278 261 239 279 318 357 3 307 284 275 242 181 339 314 316 347 351 34 3 355 9 341 1 325 75 73 80 68 71 59 50 44 39 35
302 299 273 258 272 320 5 341 358 350 351 339 343 334 349 11 4 4 351 348 339 338 331 328 325 328 333 333 332 332 322 319 319 341 317 318 306 293 273 272 271 246 243 72 22 353 16 30 10 320 315 46 3 317 2 343 348 8 18 16 353 8 31 20 46 89 79 78 74 68 65 57 45 26
333 332 316 347 59 19 331 333 342 356 347 355 356 359 4 7 359 354 352 347 345 340 334 324 323 319 320 321 320 323 335 337 354 339 311 300 311 304 287 273 255 196 248 95 46 29 24 27 29 30 35 33 45 25 13 353 10 1 12 12 355 8 355 54 45 63 96 82 74 61 56 52 42 32
311 321 326 16 30 359 351 7 8 5 2 1 359 3 359 356 348 345 351 354 350 332 320 315 313 314 318 327 336 334 333 339 355 347 335 338 345 326 308 267 256 204 178 113 88 57 50 44 53 55 52 32 30 7 5 28 20 7 6 3 355 353 4 7 10 64 74 78 75 67 53 45 36 28
301 333 1 16 13 6 5 10 8 2 358 357 354 360 2 353 357 3 7 359 346 335 337 334 332 329 340 345 350 336 336 341 8 13 352 19 353 331 302 270 257 229 214 137 97 75 64 69 69 70 64 52 41 32 21 18 16 8 6 7 5 10 13 358 18 47 68 77 79 74 61 45 37 30
324 4 8 11 9 7 3 4 0 1 353 352 351 353 352 348 0 6 357 355 344 334 338 338 336 340 343 354 354 350 354 10 20 17 353 13 352 336 315 310 270 186 220 107 108 97 102 96 94 83 76 71 62 49 36 28 12 6 2 16 17 24 25 16 43 52 57 68 81 72 57 48 41 35
11 4 12 10 10 8 2 2 354 351 350 349 349 349 345 351 359 7 359 352 340 332 339 349 344 339 351 0 26 33 27 35 31 17 6 28 16 356 354 330 8 42 304 137 126 123 140 133 129 128 110 100 83 70 54 40 19 12 10 43 34 40 41 36 40 48 57 56 61 74 66 52 41 33
18 12 11 11 6 2 358 358 352 348 349 347 349 346 346 353 2 360 358 345 344 350 355 351 351 359 22 38 47 46 46 31 31 41 48 51 25 29 23 30 74 27 326 326 136 147 168 155 193 192 180 123 62 48 40 56 45 13 6 31 46 51 51 50 52 57 58 57 52 64 63 54 44 33
14 15 12 10 3 358 353 351 352 349 349 348 349 356 354 355 359 357 356 347 358 358 359 353 14 25 41 46 47 46 41 29 39 39 43 27 14 358 38 81 67 45 46 32 31 24 358 216 180 225 98 102 83 71 47 18 33 26 5 26 60 48 46 48 59 60 59 60 63 65 70 68 59 51
17 14 13 6 2 355 352 350 348 349 350 353 354 356 355 353 356 359 360 6 7 2 7 20 28 32 39 44 40 43 42 37 28 29 15 12 347 65 102 88 73 49 53 45 39 38 29 25 28 24 67 90 89 72 59 35 29 19 13 19 50 47 50 66 64 70 70 71 76 76 81 78 73 68
16 16 9 6 358 356 350 351 348 348 348 352 357 1 358 0 3 5 13 12 10 7 2 14 27 35 42 42 45 43 40 39 36 28 39 48 51 58 62 64 68 64 62 58 56 50 48 47 47 46 41 74 81 78 75 70 47 38 30 27 35 58 60 64 77 76 82 84 87 87 82 83 86 77
15 18 13 6 2 355 353 349 349 348 349 351 358 5 1 3 6 14 21 16 9 5 9 11 14 18 31 34 33 40 43 46 54 58 52 45 49 50 56 67 72 72 70 68 66 63 61 62 55 49 77 87 94 96 94 83 75 56 47 36 42 48 37 50 67 82 84 81 97 86 79 69 65 47
10 14 15 10 5 358 353 353 352 352 356 358 5 7 357 357 11 20 26 24 20 14 18 17 16 13 17 22 28 35 45 46 44 42 48 52 54 57 61 64 61 62 65 61 56 60 69 83 98 105 99 101 103 107 82 70 60 52 52 50 45 52 53 51 43 38 54 42 65 77 78 71 74 64
10 13 13 13 7 1 360 2 358 357 2 8 11 6 350 357 19 22 26 30 25 25 26 27 26 27 26 28 31 35 39 41 47 46 46 50 54 54 57 61 61 59 62 63 60 57 58 62 65 60 71 82 85 79 75 76 79 72 67 59 56 54 58 59 59 58 50 29 47 92 94 94 75 67
14 13 13 15 9 10 6 7 4 4 10 14 16 1 353 14 19 22 22 25 26 27 28 30 36 43 41 35 38 40 42 42 45 52 50 53 56 59 61 64 72 75 76 77 75 72 67 69 71 72 60 61 67 79 86 86 82 79 72 67 64 65 62 60 61 61 58 57 56 57 44 46 39 78
16 15 16 16 15 15 13 11 9 10 14 16 12 7 16 17 22 28 26 25 28 30 30 38 43 47 51 53 51 50 48 47 49 51 55 56 56 59 64 67 69 73 78 80 81 77 78 73 69 67 72 69 69 76 79 77 73 71 71 69 68 61 60 57 61 60 58 52 50 54 57 64 69 75
17 18 17 20 21 20 18 14 14 16 20 21 19 17 19 22 24 29 29 28 32 33 36 38 43 48 50 52 53 58 59 57 56 56 56 59 61 64 67 72 73 73 67 59 75 83 81 81 76 73 73 68 61 72 75 77 78 77 72 71 66 59 56 52 57 63 65 67 53 63 70 75 79 84